Miscellaneous Local Product
Issued by NWS Hastings, NE

Home | Current Version | Previous Version | Graphics & Text | Print | Product List | Glossary On
Versions: 1 2 3 4 5 6 7 8 9 10 11 12 13 14 15 16 17 18 19 20 21 22 23 24 25 26 27 28 29 30 31 32 33 34 35 36 37 38 39 40 41 42 43 44 45 46 47 48 49 50
000
AXUS43 KGID 220802
MISGRI

GID CWA HOURLY WEATHER ROUNDUP
NATIONAL WEATHER SERVICE HASTINGS NE
200 AM CST WED FEB 22 2017

NOTE: "FAIR" INDICATES FEW OR NO CLOUDS BELOW 12,000 FEET WITH NO
SIGNIFICANT WEATHER AND/OR OBSTRUCTIONS TO VISIBILITY.

...SOUTH CENTRAL NEBRASKA...

CITY           SKY/WX    TMP DP  RH WIND       PRES   REMARKS
GRAND ISLAND   PTCLDY    48  32  53 SW10      29.72F
HASTINGS       CLEAR     47  29  49 W8        29.76S
KEARNEY        CLOUDY    43  27  52 CALM      29.74F
ORD            CLOUDY    46  33  60 NW6       29.69F
YORK           CLEAR     43  30  61 S9        29.74F
AURORA         CLEAR     45  30  55 S13       29.72F
LEXINGTON      CLOUDY    36  29  75 N5        29.73F WCI  32
HOLDREGE       CLOUDY    48  24  38 W3        29.73F
HEBRON         CLEAR     51  32  49 S10       29.76F

...NEBRASKA PANHANDLE...

CITY           SKY/WX    TMP DP  RH WIND       PRES   REMARKS
CHADRON        CLOUDY    49  37  63 W20G30    29.78R
ALLIANCE       CLEAR     44  31  60 NW15      29.79R
SCOTTSBLUFF    CLEAR     45  34  65 NW15      29.82R
SIDNEY         CLEAR     46  15  28 CALM      29.79S

...WESTERN AND NORTH CENTRAL NEBRASKA...

CITY           SKY/WX    TMP DP  RH WIND       PRES   REMARKS
VALENTINE      PTCLDY    35  28  75 W5        29.68F WCI  31
AINSWORTH      CLEAR     39  31  71 S7        29.72F WCI  34
ONEILL         CLEAR     47  32  55 W9        29.73R
BROKEN BOW     MOCLDY    43  33  68 CALM      29.71F
IMPERIAL       CLOUDY    42  20  41 NW7       29.78F
NORTH PLATTE   CLEAR     31  25  78 CALM      29.75F
MCCOOK         PTCLDY    48  26  42 W12       29.74F

...EASTERN NEBRASKA...

CITY           SKY/WX    TMP DP  RH WIND       PRES   REMARKS
NORFOLK        CLEAR     45  31  58 SW5       29.69F
SO SIOUX CITY  CLEAR     40  34  79 SE9       29.67F WCI  34
TEKAMAH        CLEAR     48  36  63 S12       29.71F
COLUMBUS       CLEAR     46  30  53 CALM      29.72F
ALBION         PTCLDY    51  32  47 CALM      29.70F
OMAHA EPPLEY   CLEAR     47  35  63 SE9       29.75S
OFFUTT AFB     CLEAR     48  35  60 E6        29.75F
MILLARD        CLEAR     58  37  45 SW6       29.75S
LINCOLN        CLEAR     50  34  54 SW3       29.77S
NEBRASKA CITY  PTCLDY    51  29  42 SW15      29.77F
BEATRICE       CLEAR     52  36  54 S9        29.77F
FALLS CITY     PTCLDY    53  33  46 S15       29.79F

...NORTHERN KANSAS...

CITY           SKY/WX    TMP DP  RH WIND       PRES   REMARKS
GOODLAND       CLOUDY    64  13  13 W21G30    29.81F
HILL CITY      PTCLDY    59  25  27 SW14G26   29.77F
NORTON         SUNNY     55  19  24 SW15      29.73F
PHILLIPSBURG   CLEAR     54  25  32 SW6       29.76S
SMITH CENTER   CLEAR     46  27  46 S7        29.77F
HAYS             N/A     47  25  42 SW10      29.80F
RUSSELL        CLOUDY    50  33  52 S16       29.79S
CONCORDIA      CLOUDY    52  36  54 S17       29.77F
SALINA         CLOUDY    49  37  63 S8        29.82F
TOPEKA         CLEAR     45  33  63 SE5       29.82F



USA.gov is the U.S. government's official web portal to all federal, state and local government web resources and services.